User: anonymous   Login
Location: Gleizolles
(44.4833°N, 6.7667°E)
Time: 12:07:46
(UTC+00:00)
Language:

Altair - Orbit

View from above orbital plane
View from above orbital plane
View from above satellite
View from above satellite

Ground track
Ground track

The orbit data is extracted from the following two-line orbital elements,

1 00050U 60009B   24170.52767596 -.00000111  00000-0 -23476-3 0  9991
2 00050  47.2311 263.4152 0112834   3.0154 357.1294 12.20141120848735
Epoch (UTC): 18 June 2024 12:39:51
Eccentricity: 0.0112834
inclination: 47.2311°
perigee height: 1502 km
apogee height: 1682 km
right ascension of ascending node: 263.4152°
argument of perigee: 3.0154°
revolutions per day: 12.20141120
mean anomaly at epoch: 357.1294°
orbit number at epoch: 84873

The dashed part of the orbit path shows where the satellite is in the earth's shadow,  

DLR